EA4TN Weather Reports


Display with metric or nautical units.
time (UTC)temp
F
wind
direction
speed
MPH
gust
MPH
rain 1hr
in
rain 24hr
in
rain mn
in
humidity
%
barometer
mb
20260503214016 61 253 1.0 3.0 0.00 0.06 0.03 63 1012.9
20260503213016 62 265 2.0 3.0 0.00 0.06 0.03 61 1012.8
20260503212016 62 258 2.0 5.0 0.00 0.06 0.03 58 1012.8
20260503211016 62 265 1.0 3.0 0.00 0.06 0.03 58 1012.7
20260503210036 62 263 2.0 5.0 0.00 0.06 0.03 59 1012.5
20260503205016 62 265 2.0 4.0 0.00 0.06 0.03 59 1012.4
20260503204016 63 268 3.0 5.0 0.00 0.06 0.03 60 1012.4
20260503203016 63 281 1.0 4.0 0.00 0.06 0.03 60 1012.2
20260503202016 63 277 2.0 6.0 0.00 0.06 0.03 60 1012.1
20260503201016 63 290 2.0 5.0 0.00 0.06 0.03 61 1011.8
20260503200016 63 272 2.0 5.0 0.00 0.06 0.03 61 1011.7
20260503195016 63 258 2.0 4.0 0.00 0.06 0.03 61 1011.6
20260503194016 64 265 2.0 5.0 0.00 0.06 0.03 60 1011.5
20260503193036 64 277 3.0 7.0 0.00 0.06 0.03 59 1011.3
20260503192036 64 281 3.0 8.0 0.00 0.06 0.03 58 1011.4
20260503191016 64 268 3.0 5.0 0.00 0.06 0.03 56 1011.2
20260503190016 65 265 5.0 8.0 0.00 0.06 0.03 56 1011.1
20260503185016 65 270 3.0 8.0 0.00 0.06 0.03 57 1011.0
20260503184036 65 262 5.0 10.0 0.00 0.06 0.03 55 1011.1
20260503183016 66 268 5.0 8.0 0.00 0.06 0.03 54 1011.1
20260503182016 66 275 6.0 11.0 0.00 0.06 0.03 55 1011.0
20260503181016 66 273 6.0 14.0 0.00 0.06 0.03 55 1011.1
20260503180016 66 271 6.0 12.0 0.00 0.06 0.03 54 1011.0
20260503175016 67 269 7.0 13.0 0.00 0.06 0.03 54 1011.1
20260503174036 67 280 5.0 13.0 0.00 0.06 0.03 54 1011.0
20260503173016 67 276 6.0 13.0 0.00 0.06 0.03 53 1011.0
20260503172016 67 271 6.0 11.0 0.00 0.06 0.03 53 1010.9
20260503171036 67 273 6.0 12.0 0.00 0.06 0.03 54 1011.0
20260503131016 69 272 7.0 15.0 0.00 0.06 0.03 53 1012.2
20260503081016 60 259 1.0 5.0 0.00 0.06 0.03 91 1014.2
20260503072016 57 264 2.0 4.0 0.00 0.09 0.03 93 1013.7
20260503071017 57 262 1.0 3.0 0.02 0.09 0.03 93 1013.8
20260503055036 57 197 1.0 2.0 0.00 0.06 0.00 90 1013.2
20260503054016 57 111 0.0 2.0 0.00 0.06 0.00 90 1013.2
20260503053016 56 0.0 1.0 0.00 0.06 0.00 90 1013.2
20260503052017 56 0.0 0.0 0.00 0.06 0.00 89 1013.3
20260503051036 57 245 0.0 2.0 0.00 0.06 0.00 89 1013.4
20260503050017 56 248 1.0 3.0 0.00 0.06 0.00 89 1013.4
20260503045017 56 0.0 2.0 0.00 0.06 0.00 89 1013.3
20260503044036 57 217 1.0 2.0 0.00 0.06 0.00 88 1013.3
20260503043017 57 113 1.0 4.0 0.00 0.06 0.00 88 1013.2
20260503042017 57 116 2.0 5.0 0.00 0.06 0.00 88 1013.4
20260503041017 57 0.0 0.0 0.00 0.06 0.00 88 1013.7
20260503040017 57 124 0.0 2.0 0.00 0.06 0.00 87 1014.0
20260503035036 57 110 1.0 4.0 0.00 0.06 0.00 88 1014.1
20260503034016 56 61 1.0 3.0 0.00 0.06 0.00 89 1014.1
20260503033017 56 61 0.0 1.0 0.00 0.06 0.00 90 1014.2
20260503032017 57 0.0 0.0 0.00 0.06 0.00 90 1014.3
20260503031016 57 0.0 1.0 0.00 0.06 0.00 90 1014.3
20260503030037 57 61 1.0 2.0 0.00 0.06 0.00 90 1014.4
20260503025016 57 61 1.0 2.0 0.00 0.06 0.00 90 1014.4
20260503024057 57 61 1.0 3.0 0.00 0.06 0.00 90 1014.3
20260503023017 57 61 1.0 2.0 0.00 0.06 0.00 90 1014.3
20260503022017 57 61 0.0 4.0 0.00 0.06 0.00 89 1014.3
20260503021017 57 61 1.0 2.0 0.00 0.06 0.00 89 1014.3
20260503020017 57 61 0.0 2.0 0.00 0.06 0.00 89 1014.2
20260503015016 57 61 0.0 1.0 0.00 0.06 0.00 89 1014.2
20260503014017 57 61 1.0 1.0 0.00 0.06 0.00 88 1014.3
20260503013037 57 61 0.0 2.0 0.00 0.06 0.00 87 1014.4
20260503012017 57 61 1.0 2.0 0.00 0.06 0.00 87 1014.5
20260503011017 57 0.0 2.0 0.00 0.06 0.00 87 1014.6
20260503010017 57 61 2.0 3.0 0.00 0.06 0.00 88 1014.6
20260503005017 57 61 0.0 2.0 0.00 0.06 0.00 88 1014.7
20260503004017 58 56 2.0 3.0 0.00 0.06 0.00 87 1014.9
20260503003037 58 351 0.0 1.0 0.00 0.06 0.00 87 1014.8
20260503002037 59 0.0 1.0 0.00 0.06 0.00 85 1015.0
20260503001017 59 256 0.0 1.0 0.00 0.06 0.00 85 1014.8
20260503000017 59 0.0 1.0 0.00 0.06 0.00 85 1014.9
20260502235016 58 256 1.0 2.0 0.00 0.06 0.06 85 1014.9
20260502234016 58 256 1.0 2.0 0.03 0.06 0.06 87 1015.0
20260502233016 58 256 0.0 1.0 0.03 0.06 0.06 88 1015.1
20260502232036 58 256 0.0 1.0 0.03 0.06 0.06 87 1015.1
20260502231017 59 256 0.0 2.0 0.03 0.06 0.06 86 1015.0
20260502230036 59 248 1.0 3.0 0.03 0.06 0.06 85 1015.2
20260502225016 60 239 2.0 4.0 0.03 0.06 0.06 84 1015.5
20260502224016 60 276 1.0 3.0 0.00 0.03 0.03 82 1015.3
20260502223016 60 276 0.0 1.0 0.00 0.03 0.03 82 1015.0
20260502222036 60 276 1.0 2.0 0.00 0.03 0.03 83 1015.2
20260502221016 60 276 1.0 2.0 0.00 0.03 0.03 82 1015.4
20260502220016 60 276 1.0 2.0 0.00 0.03 0.03 80 1015.3
20260502215036 60 274 1.0 4.0 0.00 0.03 0.03 78 1015.5